GFSSW_925_spd_159.txt.gz
Wind_Speed
21 20 20 20 19 15 12 12 12 14 15 17 18 20 20 16 10 8 5 4 6 7 9 10 9 18 14 5 9 6 6 12 11 11 12 11 12 16 11 9 12 5 4 6 25
24 23 21 20 19 19 16 12 11 10 11 13 13 16 18 18 11 9 9 4 2 5 5 10 8 4 4 6 5 5 4 10 7 9 12 13 13 9 15 18 16 9 2 4 7
31 29 25 22 20 18 17 15 11 10 11 13 12 13 17 11 4 1 7 2 1 5 3 14 16 6 5 5 8 9 13 13 15 15 17 18 18 10 14 20 9 11 12 11 6
35 35 33 28 24 20 18 16 12 10 11 14 12 12 17 2 4 7 4 1 2 4 8 10 7 4 5 7 9 11 15 17 17 16 17 17 12 15 13 18 12 12 13 9 9
37 39 36 31 27 24 20 15 10 10 11 14 10 11 7 3 6 9 3 5 2 2 13 8 7 7 6 7 10 7 7 11 10 9 9 10 14 16 20 17 19 15 14 11 13
40 42 36 30 26 23 19 14 11 11 13 11 8 9 3 5 9 8 4 7 8 13 13 10 6 8 4 7 6 8 16 15 14 13 9 11 11 10 12 15 16 17 14 10 12
44 45 36 29 24 19 17 14 14 15 14 9 7 5 4 11 3 4 5 10 9 4 5 12 15 8 9 9 9 11 14 16 14 11 11 12 19 18 13 15 23 18 12 11 10
48 45 35 26 21 17 17 16 15 15 12 8 5 2 6 10 9 8 9 16 12 11 10 11 10 6 5 8 11 12 10 8 11 15 18 13 22 17 17 19 22 23 20 14 10
51 46 34 23 17 16 17 19 18 15 12 5 5 3 7 5 5 8 6 11 16 15 18 17 11 5 6 8 8 5 12 14 18 13 15 14 24 21 20 22 22 21 19 20 17
52 46 32 19 14 16 20 18 13 10 5 2 7 4 8 6 2 3 4 12 10 8 8 8 7 5 5 5 10 10 8 12 17 17 19 19 20 11 10 7 10 9 8 13 15
52 45 29 17 13 14 19 10 6 2 2 9 14 14 17 20 16 11 3 10 8 6 7 10 6 7 11 13 14 18 19 17 15 15 22 22 22 17 13 11 9 9 7 7 7
52 43 25 16 14 13 15 5 9 9 7 12 18 16 23 5 6 9 11 7 8 7 9 7 10 14 15 13 14 17 20 18 15 13 16 20 25 17 10 17 6 9 10 8 8
53 40 20 21 13 8 9 20 17 11 4 10 3 2 4 1 4 9 9 7 6 6 11 8 13 18 19 17 16 18 13 12 15 9 15 14 19 17 14 17 17 18 10 8 14
52 36 19 25 5 20 12 22 17 8 1 6 4 2 4 5 6 13 10 3 2 9 9 12 16 16 17 15 13 19 14 14 10 6 8 7 13 20 16 18 20 19 16 15 16
52 31 18 12 13 9 22 23 15 0 4 4 10 6 17 8 16 15 22 5 8 13 11 13 16 18 17 17 17 19 11 14 4 6 7 5 1 17 12 20 20 19 14 14 21
52 24 17 8 15 17 26 24 14 2 4 7 11 18 14 9 6 6 13 2 8 3 10 15 12 12 18 20 20 19 6 6 6 4 9 13 7 19 8 14 7 14 17 12 8
49 17 12 12 8 23 23 12 2 5 13 14 15 19 15 17 20 17 14 11 7 11 9 12 12 17 9 14 10 8 4 5 4 3 10 9 11 15 17 13 14 12 11 11 9
45 9 9 11 19 22 20 2 5 16 13 15 14 17 12 18 13 13 12 8 9 16 8 5 8 10 19 13 12 15 3 4 5 4 13 12 12 9 10 7 6 4 8 17 17
36 12 10 14 16 19 5 6 4 7 12 13 14 9 11 17 14 14 14 8 5 7 5 6 7 21 21 19 14 14 11 8 9 14 15 11 18 14 6 3 2 8 9 11 14
27 10 5 15 17 10 4 5 5 8 8 9 8 5 15 13 11 13 9 10 7 11 9 5 12 10 16 18 12 10 11 5 4 4 14 8 15 8 4 3 6 7 7 9 10
8 4 7 25 7 4 4 4 5 8 5 4 10 11 11 11 10 10 6 12 10 10 7 10 6 10 11 4 14 15 11 8 6 4 5 9 6 5 2 3 2 7 8 8 7
12 4 12 22 5 3 4 9 8 12 3 5 7 8 9 9 6 7 6 10 8 10 9 5 4 8 18 22 20 13 6 6 4 3 5 4 10 9 12 4 7 8 9 12 8
7 4 13 20 4 5 6 10 11 12 7 6 5 10 5 3 5 6 11 9 10 7 3 2 4 7 8 4 1 3 10 5 9 9 14 10 8 10 16 11 7 9 10 13 17
4 4 4 4 8 7 8 11 8 6 8 12 13 11 4 5 5 9 19 9 8 12 15 15 3 7 11 17 15 23 22 20 15 8 13 16 24 18 14 16 11 13 10 12 15
2 4 3 4 8 14 12 12 12 10 5 6 12 8 9 5 14 15 15 19 12 21 4 5 6 10 18 22 22 27 27 23 18 12 10 15 19 21 13 13 8 10 10 15 17
3 4 4 10 8 12 10 10 12 10 9 7 10 16 7 7 9 19 19 17 13 10 6 5 4 6 15 21 24 22 17 7 6 6 9 13 19 9 18 18 10 11 13 14 18
10 12 3 5 6 8 7 14 16 14 5 14 13 7 8 10 16 21 19 21 16 11 10 3 2 4 11 12 20 2 7 8 10 11 9 13 16 16 20 14 15 16 16 19 17

GFSSW_925_spd_162.txt.gz
Wind_Speed
21 21 22 23 22 17 12 11 11 11 13 15 15 13 15 15 10 5 4 2 2 5 7 8 6 7 5 4 3 2 1 3 4 2 6 9 8 11 5 7 7 9 6 11 2
25 22 21 20 20 19 16 12 9 10 11 12 13 13 15 17 5 6 4 4 4 3 2 4 4 8 1 2 2 4 3 6 5 4 7 8 9 16 12 14 8 9 12 26 25
31 25 21 19 18 17 16 13 8 7 9 11 14 14 17 13 3 1 6 7 3 1 1 4 7 3 3 2 4 4 6 6 10 12 11 13 17 10 15 17 4 8 11 5 10
39 33 27 21 17 14 13 12 6 5 7 11 12 10 15 4 2 3 2 0 0 4 5 3 2 1 2 3 4 4 6 7 9 12 6 8 8 12 12 12 6 8 7 5 4
44 39 31 26 22 18 14 11 8 6 6 9 7 6 4 2 6 9 3 3 2 2 4 2 5 3 2 3 6 4 3 8 8 8 7 7 6 9 18 9 6 7 7 10 8
47 41 32 25 20 17 15 14 12 11 11 6 4 4 0 2 2 11 9 7 7 7 5 2 2 4 1 4 2 5 9 11 7 9 5 6 10 5 11 14 20 6 8 9 11
49 43 32 23 17 16 14 14 13 12 11 7 4 1 2 7 1 9 11 8 7 12 5 5 7 4 1 8 5 11 9 13 10 7 7 10 11 8 10 10 14 23 14 9 10
51 45 31 21 17 16 16 17 15 10 8 6 3 1 5 5 6 11 14 16 9 6 5 9 9 5 3 3 7 7 4 4 7 5 9 0 15 18 17 15 18 18 22 19 12
52 45 29 18 16 17 18 20 16 5 3 4 2 1 7 12 3 7 6 1 11 11 12 11 4 4 3 2 4 3 5 7 11 6 7 5 13 8 11 13 15 16 18 23 17
52 44 26 16 15 16 19 14 13 8 8 3 1 2 4 6 15 8 8 4 6 5 5 4 3 2 4 3 7 9 5 7 10 10 5 13 18 12 8 10 13 11 13 14 15
53 43 23 17 18 17 19 8 7 5 2 4 6 3 9 13 19 4 9 6 3 3 5 7 2 8 13 10 16 12 16 17 11 8 9 13 15 13 15 11 12 9 9 10 11
53 40 22 23 13 11 12 5 7 4 7 7 11 8 21 15 6 6 6 3 2 6 4 4 6 10 9 11 12 10 11 13 15 8 5 5 11 16 16 16 14 10 12 13 8
53 37 24 23 8 13 8 16 15 8 2 7 5 1 2 2 4 6 3 6 7 4 7 6 9 9 12 15 16 16 9 10 12 8 5 4 13 17 16 7 11 14 12 12 12
53 34 20 21 3 14 9 17 14 5 4 4 6 5 8 5 5 12 11 9 4 8 6 6 7 10 15 14 15 18 14 16 18 8 11 4 13 18 16 16 12 13 16 13 14
54 27 14 12 9 8 17 22 12 3 5 6 4 7 12 5 8 5 17 8 4 7 2 7 6 8 10 10 8 15 13 17 22 7 4 4 3 13 5 11 16 16 12 12 8
50 17 14 10 13 16 22 22 4 5 2 8 7 9 11 7 9 10 12 6 4 3 4 5 6 5 5 11 10 12 9 10 2 3 5 8 8 23 4 7 6 5 6 5 7
41 9 10 12 9 22 25 3 5 6 7 9 8 15 4 14 9 14 11 8 4 7 6 12 5 3 5 9 14 18 11 4 4 2 9 5 7 16 12 12 8 12 3 4 4
35 8 10 14 18 20 8 6 9 4 4 5 8 9 5 13 8 11 11 6 5 5 3 5 8 7 13 11 7 11 6 3 5 4 12 7 7 8 8 11 11 4 2 1 6
30 11 8 19 22 15 6 6 2 2 2 4 8 4 4 12 4 8 7 2 5 7 3 5 7 20 19 17 3 4 6 7 5 11 9 7 10 9 14 13 5 2 6 8 10
16 10 10 26 10 7 5 3 2 4 4 1 2 3 10 11 5 6 4 2 2 6 3 2 14 8 6 14 12 8 6 5 2 4 13 6 8 7 9 3 5 3 5 6 6
8 4 23 24 7 6 3 3 4 6 4 2 1 5 6 4 2 3 5 6 3 2 3 6 6 9 12 5 13 5 5 4 3 4 4 10 6 8 8 2 5 5 8 7 8
8 3 23 20 5 2 3 5 7 6 2 1 2 5 6 2 3 3 6 3 11 5 3 1 4 9 16 26 16 13 4 3 3 5 5 7 9 12 2 7 3 4 7 7 8
4 3 9 11 4 4 7 7 4 12 2 2 3 4 3 5 4 6 9 6 6 5 4 4 4 8 7 5 2 1 5 8 10 9 18 11 10 16 18 19 11 12 10 7 8
2 4 4 4 2 2 4 5 7 7 4 2 6 5 4 4 7 7 13 8 5 9 17 7 4 9 13 19 16 19 22 20 15 6 13 17 23 17 13 15 13 16 14 7 9
2 2 1 4 5 9 2 5 7 5 4 5 4 4 7 4 5 12 7 12 7 22 5 6 6 11 18 22 22 25 25 24 19 19 16 20 21 15 15 13 17 14 11 14 15
2 3 4 4 5 3 3 3 4 11 5 6 7 16 8 4 7 15 16 17 10 6 6 3 4 4 12 19 21 23 14 7 6 9 12 14 23 10 17 19 13 14 15 17 18
5 5 2 5 4 3 3 5 11 8 6 9 5 4 5 5 12 20 18 20 12 7 4 3 2 3 10 11 17 3 4 5 10 11 12 15 19 14 16 17 17 17 18 18 17

GFSSW_925_spd_165.txt.gz
Wind_Speed
24 23 21 20 18 16 13 11 10 8 8 11 15 15 15 18 13 5 3 2 2 5 6 7 6 3 3 2 1 3 3 2 4 2 6 7 6 1 3 6 5 4 3 6 17
26 25 22 20 18 16 14 9 6 5 6 8 11 13 14 19 9 5 1 3 5 6 4 9 5 7 3 0 2 4 3 7 7 4 7 9 6 15 5 11 3 7 1 5 14
27 25 23 21 18 15 14 11 6 3 4 6 9 9 10 9 2 3 2 1 2 5 6 4 4 2 2 1 1 2 4 5 6 8 7 5 11 8 7 5 6 8 12 2 5
32 26 23 20 18 15 13 11 8 6 6 9 9 8 9 1 4 3 4 2 1 2 6 5 6 4 3 4 3 3 6 1 6 6 6 6 6 8 6 5 6 8 9 3 2
43 31 24 20 17 15 15 12 10 8 9 8 6 8 3 3 3 3 3 3 1 1 1 2 3 2 2 4 8 2 3 8 8 9 7 7 7 8 9 10 8 9 9 11 7
46 37 26 20 16 13 12 12 11 9 8 6 5 6 3 5 2 5 5 4 2 2 3 1 1 2 2 2 1 4 4 9 7 9 6 6 6 2 7 10 11 7 9 10 11
48 37 25 18 15 13 13 14 14 6 4 4 2 3 3 4 1 5 6 4 5 7 2 4 3 3 1 7 1 4 7 9 7 5 5 3 6 5 8 9 10 13 13 8 10
49 36 23 17 16 15 17 20 10 0 0 2 2 2 2 3 4 6 11 12 7 6 11 9 4 1 2 2 8 6 3 5 6 6 8 4 8 9 10 5 11 12 13 13 11
50 37 21 16 18 17 21 13 9 7 3 3 2 1 3 7 1 11 11 6 2 1 4 6 2 1 4 3 5 5 6 6 10 4 6 2 16 6 9 8 8 9 12 14 14
50 37 20 19 17 15 22 6 7 5 6 3 1 2 4 5 8 14 11 9 4 2 5 3 5 2 3 4 4 8 7 8 12 11 15 14 17 12 7 7 9 9 10 11 13
50 35 23 21 11 13 22 2 6 5 5 1 4 2 4 11 10 3 7 4 2 4 3 3 2 6 11 7 8 7 9 12 14 15 6 15 15 19 10 7 9 10 10 13 17
52 31 23 17 12 17 18 5 2 3 5 3 3 4 9 7 4 6 2 1 2 6 1 4 6 11 6 7 7 6 9 14 18 10 6 13 23 21 8 8 15 18 18 14 13
51 28 21 14 8 16 10 11 12 1 3 6 1 2 4 2 4 5 6 4 9 4 8 8 8 2 5 8 12 12 9 14 18 16 5 6 21 12 13 10 14 12 12 10 13
46 25 18 14 3 13 5 17 12 1 4 9 8 6 10 9 2 6 16 5 3 6 5 6 4 3 8 6 8 11 11 14 12 10 14 6 16 29 10 7 7 13 15 16 16
43 19 17 13 7 6 12 19 7 2 4 9 5 5 10 8 6 10 17 7 4 5 1 7 3 7 7 7 5 5 10 7 11 12 7 2 2 25 3 15 19 14 9 11 13
42 15 14 14 12 11 21 10 4 5 1 5 4 7 6 7 4 5 6 6 2 4 4 5 6 5 6 3 1 7 5 8 2 1 6 8 11 28 5 7 6 6 4 4 5
41 11 13 17 12 25 17 4 5 6 4 6 5 6 3 7 5 6 11 6 4 6 5 6 4 2 5 5 7 13 5 4 3 1 8 4 7 18 6 12 17 16 7 6 5
38 9 18 19 25 19 4 5 8 3 2 5 4 7 3 7 5 6 8 5 5 2 3 5 6 5 9 4 6 11 5 3 5 4 7 8 8 8 10 12 14 8 6 5 6
32 5 26 29 18 10 6 6 5 4 4 3 7 2 3 5 3 6 5 1 2 2 2 4 5 11 21 13 2 3 3 5 9 15 10 8 11 9 10 13 7 6 3 5 6
19 11 19 28 14 9 5 3 3 4 3 2 1 1 4 6 4 6 4 1 4 5 4 4 10 6 3 10 9 7 3 3 2 5 7 5 7 7 10 8 3 6 7 8 8
8 4 22 30 7 6 4 2 3 3 3 4 3 4 5 4 2 3 5 6 4 3 6 3 6 7 8 5 7 4 2 5 4 4 5 8 2 6 6 8 8 8 10 10 8
7 3 20 26 5 2 2 4 6 4 3 3 3 4 5 4 4 4 6 7 5 1 5 4 4 7 13 22 16 11 10 4 3 5 5 5 16 17 21 6 7 7 9 11 9
2 3 9 10 4 4 6 4 3 4 4 2 3 4 1 2 3 5 7 7 7 6 4 5 4 5 6 4 4 2 4 8 7 4 18 13 9 13 15 15 5 6 10 14 12
3 4 4 4 2 3 4 4 5 6 4 6 8 2 5 4 6 7 10 5 2 6 16 6 5 9 12 18 12 20 19 18 15 7 15 13 25 18 15 13 16 13 15 10 10
3 2 2 4 2 3 4 3 4 4 4 6 4 5 5 3 6 7 7 11 10 15 4 6 6 8 16 21 22 24 27 23 19 14 7 9 17 19 17 13 11 15 16 14 17
2 3 3 3 4 4 2 1 2 4 3 6 4 11 6 6 9 16 15 13 6 5 5 1 4 5 18 19 17 21 21 11 7 9 12 17 23 16 17 15 16 15 18 19 20
5 3 3 4 3 1 3 1 6 7 7 5 5 7 6 9 8 20 17 19 10 6 4 3 2 3 8 9 16 6 2 4 8 12 14 17 18 10 18 19 18 19 19 21 22

GFSSW_925_spd_168.txt.gz
Wind_Speed
24 23 22 19 16 14 12 11 7 4 6 8 10 11 12 15 9 2 1 3 3 6 6 4 9 4 3 3 3 4 4 1 2 4 4 5 7 4 3 4 6 4 4 7 4
25 23 21 19 16 14 12 9 7 6 7 9 11 12 12 15 3 1 2 4 5 7 5 7 4 2 3 2 3 5 4 8 4 3 3 8 4 6 2 4 3 6 7 9 10
27 24 21 17 14 13 12 10 7 6 6 9 12 11 11 9 1 2 4 3 5 7 7 4 2 2 5 4 4 1 4 3 3 4 4 4 8 2 2 2 4 5 9 8 7
31 25 21 17 15 13 12 10 9 7 5 7 8 9 10 6 4 4 4 4 4 4 7 8 6 4 4 3 3 2 4 2 4 4 5 4 6 7 5 6 6 7 9 5 8
36 29 22 18 15 14 11 9 7 7 8 6 6 7 3 4 3 1 1 2 4 7 7 3 6 3 3 1 3 3 1 4 8 8 6 5 7 8 6 11 8 7 8 9 9
39 28 21 18 16 15 14 14 12 4 4 4 5 4 1 7 5 0 1 1 4 4 2 2 2 2 4 1 2 2 3 8 6 9 4 6 6 2 7 9 9 4 7 9 8
40 26 19 16 16 17 18 18 14 3 4 5 6 5 4 2 5 3 4 5 3 4 2 1 0 3 5 4 1 4 5 7 3 1 6 4 4 5 9 7 8 9 7 7 7
41 24 17 15 15 16 20 11 8 7 4 5 7 5 3 3 4 5 7 9 9 6 4 7 2 3 2 1 6 5 4 4 5 6 6 2 7 4 12 5 11 10 8 7 8
44 25 18 15 11 15 18 10 8 9 8 6 5 4 3 6 5 10 6 4 5 2 3 3 4 4 6 4 5 6 6 5 7 3 5 3 15 8 10 9 10 10 9 9 9
48 26 21 14 13 16 13 7 5 5 5 4 2 3 6 5 8 12 5 6 3 3 6 7 6 4 4 5 5 7 7 7 10 5 7 10 20 13 11 8 10 10 12 12 12
49 25 20 12 15 15 15 3 6 4 8 3 2 1 4 14 5 11 6 1 2 5 2 2 4 5 11 6 7 4 5 11 11 10 6 16 18 21 10 8 9 12 12 13 17
48 26 19 5 14 14 21 5 1 3 4 3 1 3 4 6 5 11 18 3 2 6 3 3 5 11 5 6 5 6 8 9 15 8 4 11 24 26 11 9 13 13 12 12 13
49 25 20 5 6 12 10 8 12 2 4 5 2 4 4 5 2 8 7 5 3 3 5 6 8 3 2 4 6 4 7 13 16 13 6 6 19 19 4 9 8 8 9 11 13
47 24 19 14 2 10 2 11 13 3 4 9 7 5 7 5 3 6 9 3 2 3 3 5 4 1 3 4 4 6 5 6 11 7 5 4 10 33 7 6 4 8 8 10 13
45 23 17 17 8 3 11 19 1 2 3 7 5 3 6 5 6 5 9 5 1 5 1 7 3 6 7 7 4 6 6 8 7 14 7 6 5 4 11 11 12 8 8 9 9
45 18 19 13 10 11 19 6 4 5 1 5 5 6 6 5 5 5 5 5 1 3 4 5 4 3 4 3 2 5 5 12 4 1 7 14 12 4 5 6 5 5 6 7 8
43 11 20 12 9 17 7 3 5 6 3 6 3 5 4 5 7 6 6 6 4 6 6 7 5 3 4 5 6 8 5 4 5 2 6 5 5 16 10 7 7 11 13 8 6
40 5 20 27 19 10 3 5 7 3 3 3 3 5 3 6 2 5 5 4 4 3 1 4 7 5 2 3 6 6 5 3 5 4 6 10 7 6 7 9 12 8 8 5 3
35 5 20 29 17 8 5 6 5 4 3 2 6 1 3 2 2 5 3 3 4 3 3 3 6 7 16 12 6 1 4 4 4 9 7 5 6 8 17 17 8 6 7 8 8
21 9 14 32 11 6 5 3 3 3 3 2 0 2 3 4 2 3 3 3 3 6 2 2 9 6 3 3 8 7 3 3 2 5 7 5 6 8 7 5 5 7 6 6 6
8 4 19 27 7 6 4 2 3 4 1 4 4 4 4 3 2 3 4 4 5 5 7 2 5 6 5 5 5 3 3 3 3 4 4 8 5 6 6 4 3 5 6 7 8
7 3 21 20 5 2 2 4 4 4 4 3 1 4 4 2 4 4 5 6 6 3 4 5 3 7 14 21 11 10 10 9 5 5 5 6 18 13 11 2 9 11 11 11 7
2 3 11 12 4 3 5 4 2 4 4 4 4 2 3 2 4 5 5 6 8 5 4 4 3 6 7 4 2 3 4 7 12 13 17 12 10 7 16 17 16 17 17 13 13
3 4 4 5 1 3 5 3 4 5 3 3 4 2 5 4 6 7 10 4 1 7 16 10 5 9 10 15 11 21 22 17 14 7 17 14 25 13 18 21 16 15 16 17 18
4 1 2 4 3 3 2 2 3 5 5 5 4 2 2 4 6 6 4 6 6 8 1 6 5 9 15 21 21 24 25 22 18 19 13 20 18 22 20 12 16 18 20 21 20
2 3 4 3 3 3 2 3 1 2 3 5 4 7 4 6 10 21 10 5 7 4 2 1 4 5 14 18 19 22 19 15 12 5 10 15 26 16 16 16 21 22 22 23 24
7 4 2 3 3 2 3 3 1 6 5 6 5 11 9 11 9 15 17 17 11 6 3 3 3 3 7 5 14 6 2 1 4 8 12 18 24 11 20 24 24 25 24 25 26

GFSSW_925_spd_171.txt.gz
Wind_Speed
23 20 18 15 12 10 9 6 4 2 3 4 6 8 9 11 3 5 4 4 4 5 5 5 6 4 3 3 3 1 2 4 3 3 1 4 8 2 5 7 4 6 9 11 12
25 20 16 13 12 11 10 7 5 3 3 5 8 8 8 7 7 9 5 7 9 6 6 2 3 2 3 3 3 1 1 4 1 3 5 9 5 8 5 6 6 9 8 12 15
25 21 16 14 13 12 10 9 8 6 6 7 8 6 7 2 3 5 4 4 6 7 6 3 3 2 4 3 3 2 1 3 4 5 6 5 8 3 6 8 8 9 14 13 16
25 22 16 13 12 12 10 9 8 8 8 6 5 5 2 3 4 2 2 4 7 7 5 9 4 3 3 3 2 1 2 3 1 7 5 10 9 9 11 11 10 12 12 13 13
29 22 17 14 12 10 8 5 5 4 6 6 6 6 2 7 5 3 2 4 7 8 9 4 9 2 3 1 0 2 1 3 7 10 8 9 12 16 13 16 15 11 10 10 10
31 20 17 15 15 15 15 12 5 3 2 4 6 6 4 16 4 2 2 4 6 5 2 2 2 2 3 0 2 3 5 9 8 9 5 6 6 3 6 6 9 9 8 11 10
31 21 17 15 14 18 18 14 9 6 4 5 6 7 7 5 3 1 3 4 4 3 2 2 2 3 3 2 2 3 6 6 3 4 4 1 11 8 10 13 14 12 14 13 13
28 23 19 13 14 19 16 11 11 10 7 8 8 4 5 3 3 5 4 4 4 4 2 3 2 2 1 1 2 3 2 6 4 9 5 4 14 8 8 13 17 17 16 15 15
34 23 16 13 13 18 10 8 9 10 10 7 6 3 4 5 6 10 7 2 3 1 1 1 3 3 1 5 3 3 9 14 9 9 7 11 21 14 15 19 16 16 17 17 18
39 22 12 14 14 17 5 5 6 11 6 5 6 2 7 8 7 12 8 3 1 2 1 4 3 4 3 8 7 15 15 12 17 13 18 22 28 21 16 17 18 18 19 19 19
41 23 12 11 13 18 5 3 4 3 11 4 3 3 2 11 10 13 12 2 1 2 6 3 7 10 13 8 7 10 12 17 17 16 17 20 28 29 19 18 20 20 21 20 20
42 22 18 6 10 13 14 5 1 2 5 3 2 1 1 8 4 15 15 3 2 7 0 3 10 12 5 5 6 8 14 18 16 12 14 19 33 26 19 21 22 20 18 17 17
41 23 16 13 3 8 10 6 8 5 1 4 4 6 5 6 4 10 13 4 3 4 3 5 9 4 7 7 8 11 15 18 21 16 13 14 27 18 14 18 14 15 17 16 16
41 23 17 12 2 8 2 11 8 6 2 9 6 5 9 4 1 5 11 3 2 5 5 6 4 2 6 10 9 18 12 9 15 14 8 10 14 17 13 6 5 9 12 12 12
38 21 19 10 4 2 10 10 8 2 0 8 4 5 6 8 8 3 9 3 3 6 3 3 8 10 13 10 8 7 8 9 14 18 19 14 10 4 10 18 20 13 9 8 7
38 17 19 9 5 10 9 6 2 1 1 1 3 6 7 7 6 5 6 5 1 3 2 8 8 5 3 5 2 7 9 19 13 7 6 4 12 5 5 9 11 11 9 11 11
37 9 13 13 8 13 2 1 0 2 1 4 4 5 6 8 5 7 8 7 5 5 8 10 3 0 2 6 8 7 13 5 3 3 5 0 9 16 17 20 19 19 19 16 11
35 2 15 22 16 6 2 1 3 0 2 1 3 6 3 9 4 8 8 6 2 2 3 7 3 4 2 6 9 16 5 4 6 5 15 16 9 3 8 10 13 13 10 5 8
27 5 10 31 13 3 2 4 2 2 2 3 4 2 2 4 5 7 6 2 1 1 6 6 6 13 15 10 4 2 5 2 8 13 9 7 10 12 16 12 3 3 4 8 10
14 5 12 29 9 3 4 3 1 2 3 1 2 1 4 6 4 8 4 2 2 7 2 3 10 6 3 5 11 13 3 4 3 5 9 11 20 14 12 11 4 6 10 13 14
6 2 17 23 5 6 4 2 2 3 3 2 2 3 4 3 4 4 4 3 5 3 7 5 4 5 12 5 6 3 4 6 3 5 6 11 10 5 12 14 11 11 15 17 18
6 2 20 18 5 2 2 4 4 3 3 3 1 2 3 4 5 4 5 5 4 2 9 6 5 10 18 22 16 15 14 13 5 7 7 10 22 19 4 9 13 17 20 22 21
3 3 12 10 4 3 3 2 2 4 3 3 3 3 2 1 4 6 6 4 6 5 3 3 4 6 8 3 3 3 6 10 13 11 18 12 13 8 19 26 23 26 22 21 22
2 4 4 5 2 3 4 2 4 4 1 4 3 2 3 4 4 9 12 7 2 8 19 12 6 12 12 16 14 20 22 20 14 6 19 19 33 29 26 27 26 25 27 26 24
4 2 2 4 3 5 1 1 2 5 4 4 1 2 3 4 14 6 6 10 12 13 4 5 6 12 18 23 24 26 26 24 21 21 15 28 27 30 27 23 26 26 26 30 30
4 3 3 3 3 3 1 2 0 3 3 4 3 10 10 8 11 17 16 12 9 3 2 1 5 8 18 22 22 24 23 22 21 17 15 21 29 24 24 23 26 30 29 29 29
6 2 2 2 3 3 2 1 2 12 5 10 9 15 13 12 9 17 19 21 18 14 8 3 3 3 10 10 18 16 3 3 7 11 15 19 28 24 23 28 29 28 26 26 25

GFSSW_925_spd_174.txt.gz
Wind_Speed
21 17 14 12 12 11 9 6 4 1 2 3 5 6 5 4 7 3 11 5 3 3 1 0 4 3 4 3 1 2 6 11 13 9 3 3 6 2 6 12 7 8 10 8 8
20 16 14 13 13 12 10 8 6 4 3 4 4 4 4 6 4 15 5 6 7 4 1 1 4 4 3 2 2 7 8 8 6 4 7 6 8 11 10 12 12 10 9 8 10
19 14 12 11 11 10 9 7 5 5 5 4 3 2 0 4 5 8 4 4 5 5 4 2 3 2 2 2 1 1 8 4 5 3 6 11 11 8 12 16 12 12 12 12 14
20 13 10 9 8 8 7 6 8 6 5 3 2 2 4 5 2 5 4 6 8 5 1 3 4 3 3 4 1 8 2 5 2 8 12 14 14 14 15 17 15 15 16 14 15
23 16 10 8 8 9 8 8 9 6 2 2 3 3 1 8 10 2 3 4 3 2 6 2 4 0 2 0 3 8 2 5 8 12 14 15 17 19 18 15 17 15 14 15 14
24 19 13 10 11 14 9 6 1 4 1 2 4 6 6 14 2 2 1 2 5 5 6 8 6 5 2 2 6 2 8 11 12 11 10 13 15 12 11 9 9 10 13 13 13
26 21 14 12 15 16 10 9 4 2 3 4 9 5 12 9 2 0 2 2 4 4 2 4 4 4 4 3 1 6 12 10 8 5 10 7 17 21 15 14 15 14 15 15 16
26 18 17 16 17 16 8 9 10 7 8 9 7 0 9 4 2 3 1 2 1 1 2 1 3 3 4 1 10 10 7 7 10 9 7 5 17 14 6 10 18 18 18 18 19
27 17 16 17 19 14 7 8 10 7 8 4 1 4 8 3 7 7 4 2 2 2 3 4 5 4 7 7 9 8 7 11 8 10 8 12 19 15 12 17 20 22 21 20 21
32 18 12 14 19 17 4 3 6 7 2 1 2 5 10 5 5 5 3 2 3 5 8 6 4 8 9 6 8 11 14 12 14 8 17 20 24 19 16 17 21 21 21 22 23
32 17 13 8 12 16 6 4 5 4 16 12 7 6 6 9 3 10 11 6 4 7 8 5 9 7 9 7 9 12 15 16 16 13 15 21 26 23 20 19 21 21 21 22 23
32 16 14 11 5 10 7 3 5 4 7 6 8 7 5 11 3 11 15 5 7 10 7 9 9 4 7 10 11 14 16 17 15 10 16 21 31 26 20 13 15 17 19 19 17
32 19 16 10 0 6 9 6 4 1 2 5 5 7 9 7 4 9 12 9 8 9 8 9 11 9 9 11 11 14 16 17 20 18 17 15 21 3 14 10 10 8 9 12 13
30 19 16 5 3 4 3 8 4 4 5 3 2 4 7 2 3 4 11 5 4 7 8 7 2 6 11 14 13 17 10 12 17 14 12 12 13 18 8 8 7 9 10 11 11
28 15 14 7 3 4 7 5 6 4 4 3 3 2 2 8 8 4 10 4 6 8 5 4 9 12 14 10 9 11 10 14 17 18 20 18 10 6 7 6 6 8 7 3 2
30 10 10 4 2 5 5 3 4 5 1 2 1 5 6 8 2 7 5 2 3 6 5 10 7 4 5 7 7 12 15 19 21 14 11 14 12 10 4 7 10 14 10 12 13
30 1 7 7 7 9 1 5 5 3 2 3 4 6 5 8 2 9 8 6 6 6 6 11 4 1 6 10 10 6 13 7 5 8 9 6 10 16 17 9 12 11 12 10 9
21 7 6 9 8 2 5 5 4 3 3 2 4 5 4 10 5 11 8 3 4 6 11 7 2 2 2 11 9 15 8 6 7 9 15 21 9 2 3 10 10 8 9 7 5
10 2 3 17 6 2 5 2 4 2 3 6 5 3 1 3 6 7 7 3 3 4 7 6 5 14 11 5 5 4 7 8 12 18 16 11 15 16 16 7 10 7 6 9 8
6 1 11 19 4 5 3 3 2 1 3 2 3 2 5 8 6 10 4 2 1 2 3 5 9 7 4 11 14 13 7 4 4 5 13 12 19 11 11 14 14 14 14 14 15
3 3 13 17 2 0 1 3 2 3 2 2 2 5 4 7 7 7 3 2 2 4 5 10 5 6 17 6 10 5 8 7 6 8 7 12 7 18 22 16 15 14 19 22 23
5 1 16 12 1 2 3 2 1 1 1 2 4 4 5 4 7 5 5 2 1 7 11 9 6 14 22 21 14 16 17 14 6 10 7 10 20 8 1 12 17 19 19 22 23
4 3 10 10 3 4 2 2 2 2 2 2 3 3 2 5 3 8 8 2 5 11 4 6 4 8 9 5 2 6 6 12 15 10 17 13 14 13 25 26 24 26 24 23 24
4 2 3 6 4 4 4 1 2 1 5 3 6 5 5 7 9 9 10 6 1 9 13 9 9 15 11 16 18 22 23 21 17 6 18 19 32 29 26 27 24 24 24 26 27
5 4 3 4 3 6 3 2 4 3 3 4 4 4 2 3 13 12 5 6 13 11 7 6 9 15 20 23 24 25 27 27 22 22 17 25 27 29 26 24 25 25 26 26 25
4 4 4 3 4 6 2 1 6 1 4 5 9 5 8 11 11 15 19 15 11 9 7 3 6 11 19 21 23 25 26 23 24 21 23 23 28 24 22 22 25 27 26 24 24
7 1 4 1 3 4 3 3 5 6 8 8 11 13 16 16 13 15 18 21 19 17 14 5 3 3 11 14 20 18 7 5 11 12 14 16 26 25 20 23 25 27 26 22 22